Location: Aydie
(43.5695°N, 0.1043°W)
Time: 06:21:30
(UTC+00:00)

ISS - Pass Details

Date: 17 November 2025
Orbit: 416 x 421 km, 51.6° (Epoch: 04 December)

Event Time Altitude Azimuth Distance (km) Brightness Sun altitude
Rises 18:43:21 0° 274° (W) 2,365 1.5 -23.4°
Reaches altitude 10° 18:45:41 10° 288° (WNW) 1,500 0.0 -23.8°
Enters shadow 18:47:47 23° 323° (NW) 946 -1.7 -24.2°
